Location: Esp�n
(42.4593°N, 0.2047°W)
Time: 02:18:52
(UTC+00:00)

Tiangong - Visible Passes

Search period start: 01 August 2021 00:00
Search period end: 11 August 2021 00:00
Orbit: 373 x 386 km, 41.5° (Epoch: 31 July)

Date Brightness Start Highest point End Pass type
(mag) Time Alt. Az. Time Alt. Az. Time Alt. Az.
07 Aug 3.1 04:17:52 10° SSW 04:20:12 19° SSE 04:22:32 10° ESE visible
08 Aug 3.6 03:18:46 12° SSE 03:19:02 12° SSE 03:20:12 10° SE visible
09 Aug 2.4 03:52:19 18° SSW 03:53:56 28° SSE 03:56:41 10° E visible
10 Aug 3.4 02:53:44 16° SE 02:53:44 16° SE 02:54:54 10° ESE visible
10 Aug 1.3 04:25:57 10° WSW 04:29:01 56° SSE 04:32:07 10° E visible
